When you browse on this site, cookies collect data to enhance your experience and personalize the content and advertising you see.
Visit our Privacy Policy to learn more. By continuing to use the site, you agree to this use of cookies and data.
  • In Hungary
  • List of Countries
  • For 7 days
  • Water Temperature
  • Satellite Maps
  • Weather Map
  • News
  • Weather Widgets
  • user-avatar
    Login

    Hourly Weather Dalniy

    Today, 14 December, Friday

    Time Temperature Precipitation Wind Pressure Humidity
    00:00 -9°C° 0 mm 6 mps 755 mmHg 81%
    01:00 -8°C° 0 mm 6 mps 755 mmHg 80%
    02:00 -8°C° 0 mm 6 mps 755 mmHg 80%
    03:00 -8°C° 0 mm 7 mps 755 mmHg 80%
    04:00 -10°C° 0 mm 5 mps 754 mmHg 84%
    05:00 -9°C° 0.1 mm 6 mps 754 mmHg 83%
    06:00 -9°C° 0.1 mm 6 mps 754 mmHg 83%
    07:00 -9°C° 0.1 mm 7 mps 754 mmHg 83%
    08:00 -8°C° 0.2 mm 7 mps 754 mmHg 84%
    09:00 -8°C° 0.2 mm 7 mps 754 mmHg 85%
    10:00 -8°C° 0.2 mm 7 mps 753 mmHg 85%
    11:00 -7°C° 0.4 mm 7 mps 753 mmHg 87%
    12:00 -7°C° 0.4 mm 7 mps 753 mmHg 88%
    13:00 -6°C° 0.4 mm 8 mps 753 mmHg 89%
    14:00 -6°C° 0.5 mm 7 mps 753 mmHg 90%
    15:00 -6°C° 0.5 mm 7 mps 753 mmHg 91%
    16:00 -6°C° 0.5 mm 7 mps 753 mmHg 92%
    17:00 -6°C° 0.4 mm 7 mps 753 mmHg 92%
    18:00 -6°C° 0.4 mm 7 mps 753 mmHg 92%
    19:00 -7°C° 0.4 mm 7 mps 753 mmHg 92%
    20:00 -7°C° 0.2 mm 7 mps 753 mmHg 92%
    21:00 -7°C° 0.2 mm 7 mps 753 mmHg 92%
    22:00 -6°C° 0.2 mm 6 mps 753 mmHg 91%
    23:00 -6°C° 0 mm 6 mps 753 mmHg 91%

    Tomorrow, 15 December, Saturday

    Time Temperature Precipitation Wind Pressure Humidity
    00:00 -6°C° 0 mm 6 mps 753 mmHg 91%
    01:00 -6°C° 0 mm 6 mps 753 mmHg 91%
    02:00 -6°C° 0 mm 6 mps 753 mmHg 91%
    03:00 -6°C° 0 mm 6 mps 753 mmHg 91%
    04:00 -8°C° 0 mm 6 mps 753 mmHg 92%
    05:00 -8°C° 0 mm 6 mps 753 mmHg 92%
    06:00 -7°C° 0 mm 5 mps 753 mmHg 92%
    07:00 -6°C° 0 mm 5 mps 754 mmHg 93%
    08:00 -6°C° 0 mm 5 mps 754 mmHg 93%
    09:00 -6°C° 0 mm 5 mps 754 mmHg 93%
    10:00 -6°C° 0 mm 5 mps 754 mmHg 93%
    11:00 -5°C° 0 mm 4 mps 755 mmHg 93%
    12:00 -5°C° 0 mm 4 mps 755 mmHg 93%
    13:00 -4°C° 0 mm 4 mps 755 mmHg 93%
    14:00 -5°C° 0 mm 4 mps 755 mmHg 94%
    15:00 -6°C° 0 mm 3 mps 755 mmHg 94%
    16:00 -7°C° 0 mm 3 mps 755 mmHg 95%
    17:00 -7°C° 0 mm 3 mps 756 mmHg 95%
    18:00 -7°C° 0 mm 3 mps 756 mmHg 95%
    19:00 -7°C° 0 mm 3 mps 756 mmHg 95%
    20:00 -7°C° 0 mm 3 mps 756 mmHg 95%
    21:00 -7°C° 0 mm 3 mps 756 mmHg 95%
    22:00 -7°C° 0 mm 3 mps 757 mmHg 95%
    23:00 -7°C° 0 mm 3 mps 757 mmHg 95%

    Day after tomorrow, 16 December, Sunday

    Time Temperature Precipitation Wind Pressure Humidity
    00:00 -8°C° 0 mm 3 mps 757 mmHg 94%
    01:00 -8°C° 0 mm 3 mps 757 mmHg 94%
    02:00 -7°C° 0 mm 2 mps 757 mmHg 94%
    03:00 -8°C° 0 mm 2 mps 758 mmHg 94%
    04:00 -8°C° 0 mm 2 mps 758 mmHg 94%
    05:00 -9°C° 0 mm 2 mps 758 mmHg 94%
    06:00 -9°C° 0 mm 2 mps 758 mmHg 94%
    07:00 -10°C° 0 mm 2 mps 759 mmHg 94%
    08:00 -10°C° 0 mm 2 mps 759 mmHg 94%
    09:00 -10°C° 0 mm 2 mps 760 mmHg 94%
    10:00 -10°C° 0 mm 2 mps 760 mmHg 94%
    11:00 -9°C° 0 mm 2 mps 760 mmHg 94%
    12:00 -9°C° 0 mm 2 mps 760 mmHg 93%
    13:00 -9°C° 0 mm 2 mps 760 mmHg 92%
    14:00 -10°C° 0 mm 2 mps 761 mmHg 91%
    15:00 -12°C° 0 mm 2 mps 761 mmHg 90%
    16:00 -13°C° 0 mm 2 mps 761 mmHg 88%
    17:00 -14°C° 0 mm 2 mps 761 mmHg 88%
    18:00 -15°C° 0 mm 2 mps 762 mmHg 88%
    19:00 -15°C° 0 mm 2 mps 762 mmHg 88%
    20:00 -15°C° 0 mm 2 mps 762 mmHg 89%
    21:00 -16°C° 0 mm 2 mps 762 mmHg 90%
    22:00 -16°C° 0 mm 2 mps 762 mmHg 91%
    23:00 -15°C° 0 mm 2 mps 762 mmHg 92%

    17 December, Monday

    Time Temperature Precipitation Wind Pressure Humidity
    00:00 -15°C° 0 mm 2 mps 763 mmHg 93%
    01:00 -15°C° 0 mm 2 mps 763 mmHg 94%
    02:00 -15°C° 0 mm 2 mps 763 mmHg 94%
    03:00 -15°C° 0 mm 2 mps 763 mmHg 94%
    04:00 -15°C° 0 mm 2 mps 763 mmHg 95%
    05:00 -15°C° 0 mm 2 mps 763 mmHg 95%
    06:00 -14°C° 0 mm 2 mps 763 mmHg 95%
    07:00 -14°C° 0 mm 2 mps 763 mmHg 95%
    08:00 -14°C° 0 mm 2 mps 763 mmHg 95%
    09:00 -13°C° 0 mm 2 mps 763 mmHg 95%
    10:00 -13°C° 0 mm 2 mps 764 mmHg 95%
    11:00 -12°C° 0 mm 2 mps 764 mmHg 94%
    12:00 -10°C° 0 mm 2 mps 764 mmHg 94%
    13:00 -9°C° 0 mm 2 mps 764 mmHg 94%
    14:00 -10°C° 0 mm 2 mps 764 mmHg 94%
    15:00 -10°C° 0 mm 2 mps 764 mmHg 94%
    16:00 -10°C° 0 mm 2 mps 764 mmHg 94%
    17:00 -12°C° 0 mm 2 mps 764 mmHg 94%
    18:00 -12°C° 0 mm 2 mps 764 mmHg 94%
    19:00 -13°C° 0 mm 2 mps 764 mmHg 94%
    20:00 -13°C° 0 mm 2 mps 764 mmHg 95%
    21:00 -13°C° 0 mm 2 mps 764 mmHg 95%
    22:00 -13°C° 0 mm 2 mps 764 mmHg 95%
    23:00 -13°C° 0 mm 2 mps 765 mmHg 95%

    18 December, Tuesday

    Time Temperature Precipitation Wind Pressure Humidity
    00:00 -10°C° 0 mm 1 mps 765 mmHg 95%
    01:00 -10°C° 0 mm 1 mps 765 mmHg 95%
    02:00 -9°C° 0 mm 1 mps 765 mmHg 95%
    03:00 -9°C° 0 mm 1 mps 765 mmHg 95%
    04:00 -8°C° 0 mm 1 mps 765 mmHg 95%
    05:00 -9°C° 0 mm 2 mps 765 mmHg 95%
    06:00 -10°C° 0 mm 2 mps 765 mmHg 95%
    07:00 -10°C° 0 mm 2 mps 765 mmHg 95%
    08:00 -10°C° 0 mm 2 mps 765 mmHg 94%
    09:00 -10°C° 0 mm 2 mps 765 mmHg 94%
    10:00 -10°C° 0 mm 2 mps 765 mmHg 94%
    11:00 -10°C° 0 mm 2 mps 765 mmHg 93%
    12:00 -10°C° 0 mm 2 mps 765 mmHg 93%
    13:00 -10°C° 0 mm 2 mps 765 mmHg 92%
    14:00 -10°C° 0 mm 2 mps 764 mmHg 92%
    15:00 -12°C° 0 mm 2 mps 764 mmHg 92%
    16:00 -13°C° 0 mm 2 mps 764 mmHg 92%
    17:00 -13°C° 0 mm 2 mps 764 mmHg 92%
    18:00 -13°C° 0 mm 2 mps 764 mmHg 92%
    19:00 -14°C° 0 mm 2 mps 764 mmHg 92%
    20:00 -14°C° 0 mm 2 mps 764 mmHg 92%
    21:00 -14°C° 0 mm 2 mps 764 mmHg 92%
    22:00 -14°C° 0 mm 2 mps 764 mmHg 92%
    23:00 -14°C° 0 mm 2 mps 764 mmHg 93%

    19 December, Wednesday

    Time Temperature Precipitation Wind Pressure Humidity
    00:00 -14°C° 0 mm 2 mps 764 mmHg 93%
    01:00 -14°C° 0 mm 2 mps 764 mmHg 93%
    02:00 -14°C° 0 mm 2 mps 764 mmHg 94%
    03:00 -13°C° 0 mm 2 mps 764 mmHg 94%
    04:00 -13°C° 0 mm 2 mps 764 mmHg 94%
    05:00 -13°C° 0 mm 2 mps 764 mmHg 94%
    06:00 -13°C° 0 mm 2 mps 763 mmHg 95%
    07:00 -12°C° 0 mm 2 mps 763 mmHg 95%
    08:00 -12°C° 0 mm 2 mps 764 mmHg 95%
    09:00 -12°C° 0 mm 2 mps 764 mmHg 95%
    10:00 -12°C° 0 mm 2 mps 764 mmHg 95%
    11:00 -12°C° 0 mm 2 mps 764 mmHg 95%
    12:00 -10°C° 0 mm 2 mps 764 mmHg 95%
    13:00 -10°C° 0 mm 2 mps 764 mmHg 95%
    14:00 -10°C° 0 mm 2 mps 764 mmHg 95%
    15:00 -12°C° 0 mm 2 mps 764 mmHg 95%
    16:00 -12°C° 0 mm 2 mps 764 mmHg 95%
    17:00 -12°C° 0 mm 2 mps 764 mmHg 95%
    18:00 -12°C° 0 mm 2 mps 764 mmHg 95%
    19:00 -12°C° 0 mm 2 mps 764 mmHg 95%
    20:00 -12°C° 0 mm 2 mps 764 mmHg 95%
    21:00 -12°C° 0 mm 2 mps 764 mmHg 95%
    22:00 -12°C° 0 mm 2 mps 765 mmHg 95%
    23:00 -12°C° 0 mm 2 mps 765 mmHg 95%
    Show more